Location: Unspecified
(0.0000°N, 0.0000°E)
Time: 19:30:27
(UTC+00:00)

Vanguard 2 - Pass Details

Date: 23 November 2019
Orbit: 553 x 2938 km, 32.9° (Epoch: 08 December)

Event Time Altitude Azimuth Distance (km) Brightness Sun altitude
Rises 00:33:39 0° 219° (SW) 5,836 12.1 -66.7°
Reaches altitude 10° 00:37:47 10° 210° (SSW) 5,117 11.8 -66.1°
Maximum altitude 00:51:53 36° 148° (SSE) 3,961 11.1 -64.2°
Drops below altitude 10° 01:07:15 10° 88° (E) 5,623 12.1 -61.7°
Sets 01:11:57 0° 80° (E) 6,460 12.5 -60.8°
